Regional Weather Roundup
Issued by NWS

Home | Current Version | Previous Version | Graphics & Text | Print | Product List | Glossary On
Versions: 1 2 3 4 5 6 7 8 9 10 11 12 13 14 15 16 17 18 19 20 21 22 23 24 25 26 27 28 29 30 31 32 33 34 35 36 37 38 39 40 41 42 43 44 45 46 47 48 49 50
000
ASUS45 KCYS 311710
RWRWY

WYOMING REGIONAL WEATHER ROUNDUP
NATIONAL WEATHER SERVICE CHEYENNE WY
1100 AM MDT MON AUG 31 2015

NOTE:  "FAIR" INDICATES FEW OR NO CLOUDS BELOW 12,000 FEET
WITH NO SIGNIFICANT WEATHER AND/OR OBSTRUCTIONS TO VISIBILITY.

WYZ001-311800-
YELLOWSTONE NATIONAL PARK

CITY           SKY/WX    TMP DP  RH WIND       PRES   REMARKS
LK YELLOWSTONE   N/A     57  23  26 SW9G22    30.26S
W YELLOWSTONE  NOT AVBL

$$
WYZ002>013-054>058-071-098>099-311800-
NORTHERN WYOMING

CITY           SKY/WX    TMP DP  RH WIND       PRES   REMARKS
JACKSON        FAIR      66  27  22 S10       30.20S
CODY           FAIR      73  27  17 SW6       30.03F
GREYBULL       FAIR      70  40  33 VRB3      30.00F
WORLAND        FAIR      69  42  37 NE6       30.01F
SHERIDAN       FAIR      70  43  37 E13       30.02F
BUFFALO        FAIR      67  43  41 SE14G22   30.08F
GILLETTE       FAIR      68  44  42 N7        30.06S
HULETT         FAIR      66  45  45 N5        30.07S
NEWCASTLE      FAIR      70  52  52 NW7       30.04R

$$
WYZ014>020-022>026-101>103-311800-
CENTRAL WYOMING

CITY           SKY/WX    TMP DP  RH WIND       PRES   REMARKS
BIG PINEY      FAIR      63  23  21 S6        30.25F
PINEDALE       FAIR      64  19  17 NW8       30.26S
DUBOIS         FAIR      64  18  16 W21G26    30.19F
LANDER         FAIR      70  33  25 VRB3      30.09S
RIVERTON       FAIR      73  27  18 CALM      30.09F
CASPER         FAIR      72  45  37 MISG      30.10F
DOUGLAS        FAIR      74  46  36 NW9       30.09S

$$
WYZ021-027>030-104>119-311800-
SOUTHERN WYOMING

CITY           SKY/WX    TMP DP  RH WIND       PRES   REMARKS
EVANSTON       FAIR      69  36  29 SW10      30.25S
KEMMERER       FAIR      68  23  18 W7        30.26S
FORT BRIDGER   SUNNY     68  36  30 N5        30.28R
ROCK SPRINGS   FAIR      65  50  58 MISG      30.24R
DIXON          FAIR      70  53  53 SW6       30.27F
RAWLINS        FAIR      72  44  36 SW17G25   30.23F
SARATOGA       FAIR      68  46  45 CALM      30.27R
LARAMIE        FAIR      71  46  40 SW7       30.25R
CHEYENNE       FAIR      78  45  30 VRB7      30.17R
TORRINGTON     FAIR      83  52  34 W7        30.02R
PINE BLUFFS    FAIR      77  45  31 W3        30.12R

$$



USA.gov is the U.S. government's official web portal to all federal, state and local government web resources and services.